Regional Weather Roundup
Issued by NWS

Home | Current Version | Previous Version | Graphics & Text | Print | Product List | Glossary On
Versions: 1 2 3 4 5 6 7 8 9 10 11 12 13 14 15 16 17 18 19 20 21 22 23 24 25 26 27 28 29 30 31 32 33 34 35 36 37 38 39 40 41 42 43 44 45 46 47 48 49 50
667
ASUS43 KIND 231109
RWRIN

WEATHER ROUNDUP FOR INDIANA
NATIONAL WEATHER SERVICE INDIANAPOLIS IN
600 AM EST THU NOV 23 2017

NOTE: "FAIR" INDICATES FEW OR NO CLOUDS BELOW 12,000 FEET WITH NO
SIGNIFICANT WEATHER AND/OR OBSTRUCTIONS TO VISIBILITY.

* - STATION DOES NOT REPORT WEATHER SUCH AS PRECIPITATION OR FOG.

+ - STATION NOT QUALITY CONTROLLED BY THE NATIONAL WEATHER SERVICE.
    USE DATA WITH CAUTION...ESPECIALLY DEWPOINT AND RELATIVE
    HUMIDITY OBSERVATIONS.

INZ001>003-010>013-019-020-231200-
NORTHWEST INDIANA

CITY           SKY/WX    TMP DP  RH WIND       PRES   REMARKS
GARY /AIRPORT/ CLOUDY    34  19  55 S9        30.08F WCI  26
KNOX *+        CLOUDY    32  23  69 SW8       30.10F WCI  25
LA PORTE +     CLOUDY    31  22  69 SW9       30.08F WCI  23
MICHIGAN CITY+ CLOUDY    32  21  64 SW8       30.09S WCI  25
MONTICELLO +   CLOUDY    30  23  74 S7        30.12F WCI  23
RENSSELAER +   CLOUDY    32  21  64 S10       30.11F WCI  24
VALPARAISO     CLOUDY    32  22  66 S9        30.08F WCI  24

$$

LMZ046-743>745-231200-
SOUTHERN LAKE MICHIGAN

STATION/POSITION TIME  TEMP    WIND        PRES    WAVE
                       AIR SEA DIR/SP/G            HT
                 (UTC) (F)     (DEG/KT/KT) (MB)    (FT)
BURNS HARBOR     1040   33     200/ 10/ 13 1019.0F
MICHIGAN CITY    1040   32     180/ 12/ 14   N/A

$$

INZ004-005-014>016-021>024-231200-
NORTH CENTRAL INDIANA

CITY           SKY/WX    TMP DP  RH WIND       PRES   REMARKS
GOSHEN         CLEAR     29  21  72 S9        30.09F WCI  20
LOGANSPORT +   CLOUDY    30  27  86 S7        30.13F WCI  23
PERU/GRISSOM   MOCLDY    29  26  90 S7        30.11F WCI  22
ROCHESTER +    CLOUDY    32  28  86 S6        30.11F WCI  26
SOUTH BEND     CLOUDY    29  21  72 SW10      30.09F WCI  20
WARSAW +       CLOUDY    30  23  74 CALM      30.11F

$$

INZ006>009-017-018-025>027-231200-
NORTHEAST INDIANA

CITY           SKY/WX    TMP DP  RH WIND       PRES   REMARKS
AUBURN +       CLOUDY    30  23  74 CALM      30.12F
FORT WAYNE     CLOUDY    30  26  85 S7        30.13F WCI  23
HUNTINGTON +   MOCLDY    30  25  84 S5        30.12F WCI  25
KENDALLVILLE + CLEAR     27  22  82 S6        30.09F WCI  21

$$

INZ028-029-035-036-043>045-051>053-231200-
WEST CENTRAL INDIANA

CITY           SKY/WX    TMP DP  RH WIND       PRES   REMARKS
CRAWFORDSVL +  CLOUDY    27  27 100 SW3         N/A
GREENCASTLE +  MOCLDY    28  25  86 CALM      30.15F
LAFAYETTE      CLOUDY    30  24  78 S6        30.13F WCI  24
TERRE HAUTE    PTCLDY    27  23  85 SE3       30.16F

$$

INZ030>032-037>040-046>048-054>057-064-065-231200-
CENTRAL INDIANA

CITY           SKY/WX    TMP DP  RH WIND       PRES   REMARKS
CP ATTERBURY + CLOUDY    28  27  93 CALM      30.17F
FISHERS *+     MOCLDY    28  27  93 CALM      30.14F
FRANKFORT +    CLOUDY    31  27  84 S3        30.14F
GREENWOOD *+   CLOUDY    33  27  80 S6        30.15F WCI  27
INDIANAPOLIS   CLOUDY    30  24  78 S7        30.15F WCI  23
-EAGLE CREEK   CLOUDY    30  23  75 S5        30.14F WCI  25
KOKOMO +       CLOUDY    29  26  89 S6        30.14F WCI  23
MARION +       CLOUDY    30  26  86 S5        30.14F WCI  25
MT COMFORT *+  CLOUDY    28  27  93 S5        30.14F WCI  23
SHELBYVILLE    CLOUDY    30  24  78 S5        30.15F WCI  25
ZIONSVILLE +   CLOUDY    28  24  88 CALM      30.14F

$$

INZ033-034-041-042-049-050-058-059-231200-
EAST CENTRAL INDIANA

CITY           SKY/WX    TMP DP  RH WIND       PRES   REMARKS
MUNCIE         CLOUDY    32  24  72 SW6       30.14F WCI  26
RICHMOND +     PTCLDY    28  27  93 S6        30.14F WCI  22

$$

INZ060-061-067>069-081>083-085>088-231200-
SOUTHWEST INDIANA

CITY           SKY/WX    TMP DP  RH WIND       PRES   REMARKS
EVANSVILLE     CLOUDY    28  26  92 CALM      30.20F
WASHINGTON +   CLOUDY    28  26  94 CALM      30.17F

$$

INZ062-063-066-070>080-084-089>092-231200-
SOUTH CENTRAL AND SOUTHEAST INDIANA

CITY           SKY/WX    TMP DP  RH WIND       PRES   REMARKS
BEDFORD +      MOCLDY    28  25  86 CALM      30.16F
BLOOMINGTON    CLOUDY    27  23  85 CALM      30.15F
MADISON *+     PTCLDY    28  27  93 CALM      30.20F
NORTH VERNON + PTCLDY    25  23  93 CALM      30.18F
SEYMOUR +      PTCLDY    27  23  86 CALM      30.18F

$$





USA.gov is the U.S. government's official web portal to all federal, state and local government web resources and services.